www.pogodaiklimat.ru

Погода и климат >> Архив погоды >> Украина >> Яготин


ПОГОДА в Яготине

  • Прогноз погоды в Яготине
  • Монитор погоды в Яготине

АРХИВ ПОГОДЫ в Яготине

Время (UTC), дата Ветер
(напр.,м/с)
 
Видим.   Явления Облачность Т
(С)
Тd
(С)
f
(%)
Тe
(С)
Тes
(С)
Комфортность P
(гПа)
Po
(гПа)
Тmin
(С)
Tmax
(С)
R
(мм)
R24
(мм)
S
(см)
12 10.08 СЗ 4 25 км 6/6 600 м
[Cu med, cong]
+24.1 +12.1 47 +26 +29 жарко 1014.0 999.2
15 10.08 СЗ 2 23 км 4/3 600 м
[Cu hum Ci fib]
+23.9 +11.6 46 +25 +27 комфорт 1015.0 1000.2
18 10.08 СЗ 1 20 км 9/4 600 м
[Sc Ci sp]
+20.9 +14.1 65 +25 +25 комфорт 1016.0 1001.1 +25.2
21 10.08 штиль 0 9000 м дымка 6/6 600 м
[Sc]
+15.8 +14.0 89 +16 +16 1017.0 1001.8
00 11.08 штиль 0 8000 м дымка ясно +13.2 +12.1 93 +13 +13 1017.0 1001.6
03 11.08 штиль 0 6000 м дымка 8/8 660 м
[Sc]
+12.6 +11.7 94 +12 +12 1017.0 1001.6
06 11.08 штиль 0 9000 м дымка 8/0
[Ac und]
+19.4 +16.1 81 +21 +21 комфорт 1018.0 1003.0 +11.9
09 11.08 ЮЗ 1 15 км 10/5 600 м
[Sc Ac und]
+21.6 +16.1 71 +25 +25 комфорт 1018.0 1003.1
12 11.08 ЮЗ 2 18 км 10/3 600 м
[Sc Ac und]
+23.9 +14.6 56 +27 +27 жарко 1017.0 1002.2
15 11.08 ЮЗ 2 16 км 8/4 600 м
[Sc Ac und]
+22.7 +14.5 60 +26 +26 жарко 1016.0 1001.2
18 11.08 Ю 1 13 км 8/5 600 м
[Sc Ac und]
+20.3 +16.3 78 +24 +24 комфорт 1017.0 1002.0 +25.5
21 11.08 ЮЗ 1 9000 м 9/9 750 м
[Sc]
+19.1 +17.1 88 +22 +22 комфорт 1017.0 1002.0
00 12.08 ЮЗ 1 7000 м дымка 6/6 600 м
[Sc]
+17.0 +15.5 91 +18 +18 1018.0 1002.8
03 12.08 штиль 0 6000 м дымка 10/10 660 м
[Sc]
+14.4 +13.3 93 +14 +14 1018.0 1002.7
06 12.08 СВ 1 15 км ясно +21.3 +17.1 77 +25 +32 комфорт 1019.0 1004.1 +14.3
09 12.08 З 2 20 км ясно +25.5 +16.6 58 +29 +43 душно 1019.0 1004.3
12 12.08 С 1 20 км ясно +28.7 +14.5 42 +31 +44 жарко 1018.0 1003.4
15 12.08 З 2 20 км 1/1 600 м
[Cu hum]
+29.5 +15.0 41 +32 +34 душно 1017.0 1002.6
18 12.08 СВ 2 20 км 1/1 600 м
[Sc diur, vesp]
+22.9 +17.6 72 +28 +28 душно 1017.0 1002.2 +30.0
21 12.08 В 2 17 км ясно +20.3 +16.1 77 +24 +24 комфорт 1017.0 1002.0
00 13.08 ЮВ 2 15 км ясно +19.2 +14.9 76 +21 +21 комфорт 1017.0 1002.0
03 13.08 В 2 12 км 1/0
[Ci fib]
+17.2 +14.5 84 +18 +18 1016.0 1000.9
06 13.08 Ю 4 19 км ясно +24.7 +16.4 60 +28 +32 душно 1015.0 1000.3 +16.9
09 13.08 Ю 5 20 км ясно +31.7 +16.0 39 +35 +42 очень
душно
1014.0 999.6
12 13.08 Ю 5 20 км 6/5 600 м
[Cb cap Ci sp]
+33.9 +18.0 39 +38 +40 очень
душно
1012.0 997.8
15 13.08 Ю 4 20 км ясно +34.1 +16.4 35 +37 +38 очень
душно
1010.0 995.8
18 13.08 Ю 2 24 км 3/3 600 м
[Sc]
+27.9 +18.3 56 +33 +33 очень
душно
1012.0 997.5 +35.2
21 13.08 СВ 2 15 км зарница 3/3 600 м
[Sc]
+23.3 +18.6 75 +29 +29 душно 1013.0 998.3
00 14.08 СЗ 2 13 км ясно +20.3 +16.5 79 +24 +24 комфорт 1014.0 999.1
03 14.08 В 2 11 км ясно +20.5 +18.1 86 +25 +25 комфорт 1013.0 998.1
06 14.08 В 3 21 км ясно +25.7 +18.6 65 +31 +35 очень
душно
1013.0 998.4 +20.3
09 14.08 ЮВ 4 20 км 8/8 720 м
[Sc]
+30.0 +17.8 48 +34 +34 очень
душно
1012.0 997.6
12 14.08 ЮВ 4 20 км 9/0
[Ci sp]
+33.3 +16.2 36 +36 +36 очень
душно
1010.0 995.8
15 14.08 ЮВ 4 20 км 9/0
[Ci sp]
+31.7 +16.0 39 +35 +35 очень
душно
1009.0 994.7
18 14.08 ЮВ 3 20 км 1/1 600 м
[Sc diur, vesp]
+25.3 +14.4 51 +28 +28 жарко 1009.0 994.4 +33.7
21 14.08 ЮВ 2 18 км ясно +21.5 +14.9 66 +25 +25 комфорт 1009.0 994.2
00 15.08 ЮВ 1 15 км ясно +17.7 +12.2 70 +19 +19 1009.0 994.0
03 15.08 З 1 9000 м дымка 1/0
[Cc]
+15.4 +12.5 83 +16 +16 1009.0 993.9
06 15.08 З 2 16 км 9/9 600 м
[Sc]
+21.3 +17.1 77 +25 +25 комфорт 1010.0 995.2 +14.9
09 15.08 ЮЗ 2 19 км 10/10 720 м
[Sc]
+20.1 +15.9 77 +23 +23 комфорт 1010.0 995.1
12 15.08 СЗ 3 25 км 10/10 720 м
[Sc]
+21.3 +16.3 73 +25 +25 комфорт 1010.0 995.2
15 15.08 ЮВ 2 20 км 10/3 600 м
[Sc Ac und Ci]
+20.5 +15.3 72 +24 +24 комфорт 1010.0 995.1
18 15.08 ЮЗ 2 17 км 10/4 600 м
[Sc Ac und Ci]
+19.0 +14.3 74 +21 +21 комфорт 1011.0 996.0 +22.2
21 15.08 ЮЗ 2 13 км 6/0
[Ac und]
+17.3 +13.6 79 +18 +18 1011.0 996.0
00 16.08 З 3 11 км 8/0
[Ac lent]
+16.5 +13.6 83 +16 +16 1010.0 994.9
03 16.08 СЗ 2 12 км 9/9 750 м
[Sc]
+16.0 +13.8 87 +16 +16 1010.0 994.9
06 16.08 СЗ 2 15 км 10/10 720 м
[Sc]
+16.6 +13.9 84 +17 +17 1010.0 994.9 +15.9
09 16.08 СЗ 3 17 км 10/10 660 м
[Sc]
+17.4 +14.3 82 +17 +17 1011.0 996.0
12 16.08 СЗ 4 16 км 10/10 700 м
[Sc]
+17.0 +13.7 81 +17 +17 1011.0 995.9
15 16.08 Ю 2 19 км 10/10 660 м
[Sc]
+18.0 +13.7 76 +19 +19 1011.0 996.0
18 16.08 СЗ 3 16 км 10/10 660 м
[Sc]
+17.1 +11.8 71 +17 +17 1012.0 996.9 +18.4
21 16.08 СЗ 3 15 км 10/10 660 м
[Sc]
+15.5 +12.4 82 +15 +15 1012.0 996.8
00 17.08 СЗ 3 12 км 10/10 630 м
[Cb cap]
+14.9 +12.9 88 +14 +14 1012.0 996.8
03 17.08 СЗ 2 8000 м дымка 10/10 660 м
[Sc]
+14.2 +12.6 90 +14 +14 1011.0 995.8
06 17.08 СЗ 2 9000 м дымка 10/10 660 м
[Sc]
+14.6 +12.5 87 +14 +14 1011.0 995.8 +13.9
09 17.08 СЗ 3 11 км 10/10 630 м
[Sc]
+15.4 +12.5 83 +15 +15 1012.0 996.8

 

Местоположение метеостанции Яготин (Киевская область, Украина): широта 50.22 долгота 31.80 высота над уровнем моря 128 м.

В архиве по умолчанию представлена погода в Яготине за последнюю неделю. Архивные данные за месяц целиком и за предыдущие месяцы, начиная с января 2011 года, Вы можете получить, выбрав интересующий диапазон дат из раскрывающегося списка и нажав кнопку "Ввод!".


*Определитесь, кто Вы:
робот инопланетянин человек

Внимание! Время в таблицах - всемирное. Для получения местного времени необходимо прибавить поправку, которая равна 2 ч.

Смотрите также архив погоды в соседних городах и на ближайших метеорологических станциях:

Погода в Барышевке (Киевская область, Украина) (37 км)
Погода в Прилуках (Черниговская область, Украина) (57 км)
Погода в Каневе (Черкасская область, Украина) (58 км)
Погода в Борисполе (Киевская область, Украина) (60 км)
Погода в Золотоноше (Черкасская область, Украина) (62 км)
Погода в Мироновке (Киевская область, Украина) (84 км)
Погода в Киеве (город Киев, Украина) (90 км)
Погода в Лубнах (Полтавская область, Украина) (90 км)
Погода в Черкассах (Черкасская область, Украина) (91 км)
Погода в Нежине (Черниговская область, Украина) (93 км)

Пояснения к столбцам:

Ветер - указаны скорость ветра в м/с - средняя за 10 мин, порывы в срок и между сроками (в фигурных скобках) и направление, откуда дует ветер: С - северный, СВ - северо-восточный, В - восточный, ЮВ - юго-восточный, Ю - южный, ЮЗ - юго-западный, З - западный, СЗ - северо-западный.
Видимость - горизонтальная дальность видимости в метрах или километрах. При видимости от 1 до 10 км при отсутствии осадков обычно наблюдается дымка, при ухудшении видимости до 1 км и менее - туман. В сухую погоду видимость может ухудшаться дымом, пылью или мглою.
Явления - указаны атмосферные явления, наблюдавшиеся в срок или в последний час перед сроком; фигурными скобками обозначены явления, наблюдавшиеся между сроками (за 1-3 часа до срока); квадратными скобками обозначены град или гололедные отложения с указанием их диаметра в мм.
Облачность - указаны через наклонную черту общая и нижняя облачность в баллах и высота нижней границы облаков в метрах; квадратными скобками обозначены формы облаков: Ci - перистые, Cs - перисто-слоистые, Cc - перисто-кучевые, Ac - высококучевые, As - высокослоистые, Sc - слоисто-кучевые, Ns - слоисто-дождевые, Cu - кучевые, Cb - кучево-дождевые. Подробнее классификацию облаков см. в Атласе облаков (PDF).
T - Температура воздуха - температура, измеренная на высоте 2 м над землей.
Td - Температура точки росы - температура, при понижении до которой содержащийся в воздухе водяной пар достигнет насыщения.
f - Относительная влажность воздуха - влажноcть воздуха, измеренная на высоте 2 м над землей.
Te - Эффективная температура - температура, которую ощущает одетый по сезону человек в тени. Характеристика душности погоды. При расчете учитывается влияние влажности воздуха и скорости ветра на теплоощущения человека.
Tes - Эффективная температура на солнце - температура, которую ощущает человек, с поправкой на солнечный нагрев. Характеристика знойности погоды. Зависит от высоты солнца над горизонтом, облачности и скорости ветра. Ночью, в пасмурную погоду, а также при ветре 12 м/с и более поправка равна нулю.
P - Атмосферное давление - приведенное к уровню моря атмосферное давление.
Po - Атмосферное давление - измеренное на уровне метеостанции атмосферное давление.
Tmin - Минимальная температура - минимум температуры воздуха на высоте 2 м над землей.
Tmax - Максимальная температура - максимум температуры воздуха на высоте 2 м над землей.
R - Количество осадков - Количество выпавших осадков за период времени, мм. При наведении курсора мыши на число - период времени, за который выпало указанное количество осадков.
R24 - Количество осадков - Количество выпавших осадков за 24 часа, мм.
S - Снежный покров - Высота снежного покрова, см. При наведении курсора мыши на число - состояние снежного покрова и степень покрытия местности в баллах.